Lakeland Region, FL

12:30 PM EST on December 14, 2017 (GMT -0500)
Lakeland Linder Regional

Weather History for KLAL - September, 2013

Change the Weather History Date:

Tuesday, September 17, 2013

  Actual Average Record
Temperature  
Mean Temperature 80 °F -  
Max Temperature 89 °F 86 °F 95 °F (2010)
Min Temperature 71 °F 72 °F 68 °F (1999)
Cooling Degree Days 15    
Growing Degree Days 30 (Base 50)    
Moisture  
Dew Point 71 °F    
Average Humidity 85    
Maximum Humidity 100    
Minimum Humidity 46    
Precipitation  
Precipitation 0.00 in - - ()
Sea Level Pressure  
Sea Level Pressure 30.02 in    
Wind  
Wind Speed 5 mph (NE)    
Max Wind Speed 16 mph    
Max Gust Speed 23 mph    
Visibility 12 miles    
Events Rain    
Averages and records for this station are not official NWS values.
T = Trace of Precipitation, MM = Missing Value Source: NWS Daily Summary

Daily Weather History Graph

Daily Weather History Graph

Search for Another Location

Airport or City:

Trip Planner

Search our weather history database for the weather conditions in past years. The results will help you decide how hot, cold, wet, or windy it might be!

Date:

Astronomy

Sep. 17, 2013 Rise Set
Actual Time 7:14 AM EDT 7:30 PM EDT
Civil Twilight 6:50 AM EDT 7:53 PM EDT
Nautical Twilight 6:23 AM EDT 8:20 PM EDT
Astronomical Twilight 5:55 AM EDT 8:48 PM EDT
Moon 6:12 PM EDT (9/17) 5:14 AM EDT (9/17)
Length of Visible Light 13h 02m
Length of Day
12h 15m
Waxing Gibbous, 96% of the Moon is Illuminated
Sep 17
Waxing Gibbous
Sep 19
Full
Sep 26
Last Quarter
Oct 4
New
Oct 11
First Quarter

Hourly Weather History & Observations

Time (EDT) Temp. Heat Index Dew Point Humidity Pressure Visibility Wind Dir Wind Speed Gust Speed Precip Events Conditions
12:15 AM 73.4 °F - 69.8 °F 88% 30.04 in 10.0 mi Calm Calm - N/A   Clear
12:35 AM 73.4 °F - 69.8 °F 88% 30.04 in 10.0 mi Calm Calm - N/A   Clear
12:55 AM 73.4 °F - 69.8 °F 88% 30.04 in 10.0 mi ENE 4.6 mph - N/A   Clear
1:15 AM 73.4 °F - 69.8 °F 88% 30.03 in 10.0 mi ENE 5.8 mph - N/A   Clear
1:35 AM 73.4 °F - 69.8 °F 88% 30.03 in 10.0 mi East 5.8 mph - N/A   Clear
1:55 AM 73.4 °F - 69.8 °F 88% 30.03 in 10.0 mi ENE 4.6 mph - N/A   Clear
2:15 AM 73.4 °F - 69.8 °F 88% 30.03 in 10.0 mi ENE 4.6 mph - N/A   Clear
2:35 AM 73.4 °F - 69.8 °F 88% 30.02 in 10.0 mi East 3.5 mph - N/A   Clear
2:55 AM 73.4 °F - 71.6 °F 94% 30.02 in 10.0 mi NNE 4.6 mph - N/A   Clear
3:15 AM 73.4 °F - 71.6 °F 94% 30.02 in 10.0 mi NE 3.5 mph - N/A   Clear
3:35 AM 73.4 °F - 71.6 °F 94% 30.01 in 10.0 mi NNE 4.6 mph - N/A   Clear
3:55 AM 73.4 °F - 71.6 °F 94% 30.01 in 10.0 mi NNE 4.6 mph - N/A   Clear
4:15 AM 71.6 °F - 69.8 °F 94% 30.01 in 10.0 mi NNE 3.5 mph - N/A   Clear
4:35 AM 71.6 °F - 69.8 °F 94% 30.02 in 10.0 mi North 4.6 mph - N/A   Clear
4:55 AM 71.6 °F - 69.8 °F 94% 30.02 in 10.0 mi North 4.6 mph - N/A   Clear
5:15 AM 71.6 °F - 69.8 °F 94% 30.02 in 10.0 mi North 4.6 mph - N/A   Clear
5:35 AM 71.6 °F - 69.8 °F 94% 30.02 in 10.0 mi North 5.8 mph - N/A   Clear
5:55 AM 71.6 °F - 69.8 °F 94% 30.02 in 10.0 mi North 4.6 mph - N/A   Clear
5:56 AM 71.6 °F - 71.6 °F 100% 30.02 in 10.0 mi NNE 4.6 mph - N/A   Scattered Clouds
6:15 AM 71.6 °F - 69.8 °F 94% 30.03 in 10.0 mi NNE 4.6 mph - N/A   Clear
6:35 AM 71.6 °F - 69.8 °F 94% 30.03 in 10.0 mi NNE 5.8 mph - N/A   Clear
6:52 AM 71.6 °F - 71.6 °F 100% 30.04 in 10.0 mi NE 4.6 mph - N/A   Partly Cloudy
7:50 AM 73.4 °F - 71.6 °F 94% 30.04 in 15.0 mi NNE 3.5 mph - N/A   Partly Cloudy
8:50 AM 78.8 °F - 73.4 °F 83% 30.06 in 15.0 mi ENE 8.1 mph - N/A   Partly Cloudy
9:50 AM 82.4 °F 87.2 °F 71.6 °F 70% 30.07 in 15.0 mi East 8.1 mph - N/A   Mostly Cloudy
10:50 AM 84.2 °F 88.4 °F 69.8 °F 62% 30.07 in 15.0 mi ENE 12.7 mph - N/A   Scattered Clouds
11:54 AM 86.0 °F 90.4 °F 69.8 °F 58% 30.07 in 20.0 mi ENE 10.4 mph - N/A   Mostly Cloudy
12:50 PM 87.8 °F 92.6 °F 69.8 °F 55% 30.05 in 20.0 mi NE 9.2 mph - N/A   Mostly Cloudy
1:50 PM 89.6 °F 92.2 °F 66.2 °F 46% 30.02 in 20.0 mi ENE 9.2 mph 13.8 mph N/A   Mostly Cloudy
2:50 PM 80.6 °F 83.9 °F 69.8 °F 70% 30.01 in 20.0 mi ESE 6.9 mph - N/A   Mostly Cloudy
3:50 PM 87.8 °F 92.6 °F 69.8 °F 55% 29.98 in 20.0 mi East 9.2 mph - N/A   Mostly Cloudy
4:50 PM 87.8 °F 92.6 °F 69.8 °F 55% 29.97 in 20.0 mi East 13.8 mph 19.6 mph N/A   Mostly Cloudy
5:50 PM 82.4 °F 87.2 °F 71.6 °F 70% 29.98 in 20.0 mi NE 16.1 mph 23.0 mph N/A   Overcast
6:50 PM 77.0 °F - 69.8 °F 78% 30.00 in 20.0 mi ESE 9.2 mph - N/A   Mostly Cloudy
7:50 PM 75.2 °F - 71.6 °F 89% 30.01 in 10.0 mi East 9.2 mph - N/A Rain Light Rain
8:50 PM 75.2 °F - 73.4 °F 94% 29.99 in 10.0 mi East 4.6 mph - N/A   Mostly Cloudy
9:50 PM 75.2 °F - 73.4 °F 94% 30.01 in 10.0 mi ENE 3.5 mph - N/A   Scattered Clouds
10:55 PM 73.4 °F - 71.6 °F 94% 30.02 in 10.0 mi East 5.8 mph - N/A   Clear
11:15 PM 73.4 °F - 71.6 °F 94% 30.02 in 10.0 mi ENE 5.8 mph - N/A   Clear
11:35 PM 73.4 °F - 71.6 °F 94% 30.03 in 10.0 mi NE 4.6 mph - N/A   Clear
11:55 PM 73.4 °F - 71.6 °F 94% 30.03 in 10.0 mi NE 3.5 mph - N/A   Clear